Weather History for Sussex, NJ

Change the Weather History Date:

Sunday, January 27, 2013

  Actual Average Record
Temperature  
Mean Temperature 20 °F -  
Max Temperature 33 °F 36 °F 63 °F (1950)
Min Temperature 6 °F 15 °F -13 °F (1987)
Degree Days  
Heating Degree Days 46    
Moisture  
Dew Point 8 °F    
Average Humidity 62    
Maximum Humidity 83    
Minimum Humidity 32    
Precipitation  
Precipitation 0.00 in - - ()
Sea Level Pressure  
Sea Level Pressure 30.47 in    
Wind  
Wind Speed 3 mph (West)    
Max Wind Speed 10 mph    
Max Gust Speed 16 mph    
Visibility 10 miles    
Events      
Averages and records for this station are not official NWS values.
T = Trace of Precipitation, MM = Missing Value Source: NWS Daily Summary

Daily Weather History Graph

Daily Weather History Graph

Search for Another Location

Airport:

Trip Planner

Search our weather history database for the weather conditions in past years. The results will help you decide how hot, cold, wet, or windy it might be!

Date:

Astronomy

Jan. 27, 2013 Rise Set
Actual Time 7:13 AM EST 5:09 PM EST
Civil Twilight 6:44 AM EST 5:38 PM EST
Nautical Twilight 6:11 AM EST 6:12 PM EST
Astronomical Twilight 5:38 AM EST 6:44 PM EST
Moon 6:01 PM EST (1/27) 7:04 AM EST (1/27)
Length of Visible Light 10h 54m
Length of Day
9h 55m
Full, 100% of the Moon is Illuminated
Jan 27
Full
Feb 3
Last Quarter
Feb 10
New
Feb 17
First Quarter
Feb 25
Full

Hourly Weather History & Observations

Time (EST) Temp. Windchill Dew Point Humidity Pressure Visibility Wind Dir Wind Speed Gust Speed Precip Events Conditions
12:53 AM 10.9 °F 4.7 °F 5.0 °F 77% 30.38 in 10.0 mi WSW 3.5 mph - N/A   Clear
1:53 AM 10.9 °F 4.7 °F 5.0 °F 77% 30.40 in 10.0 mi West 3.5 mph - N/A   Clear
2:53 AM 10.0 °F 3.6 °F 5.0 °F 80% 30.41 in 10.0 mi West 3.5 mph - N/A   Clear
3:53 AM 10.0 °F 3.6 °F 5.0 °F 80% 30.41 in 10.0 mi West 3.5 mph - N/A   Partly Cloudy
4:53 AM 6.1 °F - 1.9 °F 83% 30.42 in 10.0 mi Calm Calm - N/A   Partly Cloudy
5:53 AM 9.0 °F - 3.9 °F 80% 30.43 in 10.0 mi Calm Calm - N/A   Clear
6:53 AM 9.0 °F - 3.9 °F 80% 30.45 in 10.0 mi Calm Calm - N/A   Clear
7:53 AM 10.0 °F - 5.0 °F 80% 30.47 in 8.0 mi Calm Calm - N/A   Clear
8:53 AM 18.0 °F - 10.9 °F 74% 30.49 in 10.0 mi Calm Calm - N/A   Clear
9:53 AM 23.0 °F 15.8 °F 10.9 °F 60% 30.51 in 10.0 mi Variable 5.8 mph - N/A   Clear
10:53 AM 27.0 °F 20.5 °F 10.0 °F 49% 30.53 in 10.0 mi Variable 5.8 mph - N/A   Clear
11:53 AM 30.0 °F 23.2 °F 9.0 °F 41% 30.50 in 10.0 mi Variable 6.9 mph - N/A   Clear
12:53 PM 30.9 °F 23.5 °F 7.0 °F 37% 30.48 in 10.0 mi NW 8.1 mph - N/A   Clear
1:53 PM 32.0 °F 23.6 °F 7.0 °F 35% 30.46 in 10.0 mi WNW 10.4 mph 16.1 mph N/A   Clear
2:53 PM 33.1 °F 26.9 °F 6.1 °F 32% 30.46 in 10.0 mi NW 6.9 mph - N/A   Clear
3:53 PM 32.0 °F 27.5 °F 5.0 °F 32% 30.46 in 10.0 mi WNW 4.6 mph - N/A   Clear
4:53 PM 30.9 °F 26.2 °F 8.1 °F 38% 30.49 in 10.0 mi NW 4.6 mph - N/A   Clear
5:53 PM 28.9 °F 25.2 °F 9.0 °F 43% 30.50 in 10.0 mi West 3.5 mph - N/A   Clear
6:53 PM 26.1 °F - 10.9 °F 53% 30.50 in 10.0 mi Calm Calm - N/A   Clear
7:53 PM 21.9 °F - 12.0 °F 66% 30.49 in 10.0 mi Calm Calm - N/A   Clear
8:53 PM 19.9 °F 14.9 °F 12.0 °F 71% 30.50 in 10.0 mi WSW 3.5 mph - N/A   Clear
9:53 PM 19.0 °F - 10.9 °F 71% 30.48 in 10.0 mi Calm Calm - N/A   Clear
10:53 PM 18.0 °F - 10.9 °F 74% 30.47 in 10.0 mi Calm Calm - N/A   Clear
11:53 PM 17.1 °F - 10.9 °F 77% 30.48 in 9.0 mi Calm Calm - N/A   Clear